Andrews, NC

9:52 PM EST on February 09, 2016 (GMT -0500)
Andrews

Weather History for KRHP - September, 2013

Change the Weather History Date:

Saturday, September 28, 2013

  Actual Average (KTYS) Record (KTYS)
Temperature  
Mean Temperature 62 °F 66 °F  
Max Temperature 74 °F 77 °F 93 °F (1939)
Min Temperature 49 °F 55 °F 37 °F (1985)
Degree Days  
Heating Degree Days 4 2  
Month to date heating degree days 17  
Since 1 July heating degree days 17  
Cooling Degree Days 0 3  
Month to date cooling degree days 199  
Year to date cooling degree days 1480  
Growing Degree Days 12 (Base 50)    
Moisture  
Dew Point 55 °F    
Average Humidity 82    
Maximum Humidity 100    
Minimum Humidity 49    
Precipitation  
Precipitation 0.00 in 0.11 in 1.78 in (1872)
Month to date precipitation 3.02  
Year to date precipitation 36.62  
Snow  
Snow 0.00 in 0.00 in - ()
Month to date snowfall 0.0  
Since 1 July snowfall 0.0  
Since 1 September snowfall 0.0  
Snow Depth -    
Sea Level Pressure  
Sea Level Pressure 30.20 in    
Wind  
Wind Speed 0 mph (NNW)    
Max Wind Speed 5 mph    
Max Gust Speed -    
Visibility 8 miles    
Events Fog    
T = Trace of Precipitation, MM = Missing Value Source: NWS Daily Summary

Daily Weather History Graph

Daily Weather History Graph

Search for Another Location

Airport or City:

Trip Planner

Search our weather history database for the weather conditions in past years. The results will help you decide how hot, cold, wet, or windy it might be!

Date:

Astronomy

Sep. 28, 2013 Rise Set
Actual Time 7:28 AM EDT 7:23 PM EDT
Civil Twilight 7:02 AM EDT 7:48 PM EDT
Nautical Twilight 6:33 AM EDT 8:17 PM EDT
Astronomical Twilight 6:03 AM EDT 8:47 PM EDT
Moon 1:26 AM EDT (9/28) 3:30 PM EDT (9/28)
Length of Visible Light 12h 45m
Length of Day
11h 55m
Last Quarter, 36% of the Moon is Illuminated
Sep 28
Last Quarter
Oct 4
New
Oct 11
First Quarter
Oct 18
Full
Oct 26
Last Quarter

Hourly Weather History & Observations

Time (EDT) Temp. Dew Point Humidity Pressure Visibility Wind Dir Wind Speed Gust Speed Precip Events Conditions
12:15 AM 57.7 °F 57.4 °F 99% 30.18 in 7.0 mi Calm Calm - N/A   Overcast
12:35 AM 57.4 °F 57.2 °F 99% 30.19 in 7.0 mi Calm Calm - N/A   Overcast
12:55 AM 58.1 °F 57.6 °F 98% 30.19 in 7.0 mi Calm Calm - N/A   Overcast
1:15 AM 58.3 °F 57.7 °F 98% 30.19 in 7.0 mi Calm Calm - N/A   Overcast
1:35 AM 57.9 °F 57.6 °F 99% 30.19 in 7.0 mi Calm Calm - N/A   Overcast
1:55 AM 57.2 °F 56.8 °F 99% 30.19 in 5.0 mi Calm Calm - N/A   Overcast
2:15 AM 56.8 °F 56.5 °F 99% 30.19 in 5.0 mi Calm Calm - N/A   Mostly Cloudy
2:35 AM 55.4 °F 55.0 °F 99% 30.19 in 5.0 mi Calm Calm - N/A   Mostly Cloudy
2:55 AM 55.6 °F 55.4 °F 99% 30.19 in 5.0 mi Calm Calm - N/A   Overcast
3:15 AM 55.9 °F 55.8 °F 99% 30.19 in 0.5 mi Calm Calm - N/A Fog Fog
3:35 AM 56.3 °F 56.3 °F 100% 30.19 in 1.8 mi Calm Calm - N/A   Overcast
3:55 AM 56.5 °F 56.5 °F 100% 30.20 in 0.5 mi Calm Calm - N/A Fog Fog
4:15 AM 55.9 °F 55.8 °F 99% 30.20 in 5.0 mi Calm Calm - N/A   Overcast
4:35 AM 54.9 °F 54.7 °F 99% 30.20 in 7.0 mi Calm Calm - N/A   Overcast
4:55 AM 53.8 °F 53.6 °F 99% 30.20 in 0.2 mi Calm Calm - N/A Fog Fog
5:15 AM 53.2 °F 53.1 °F 99% 30.20 in 5.0 mi Calm Calm - N/A   Scattered Clouds
5:35 AM 52.3 °F 52.2 °F 99% 30.20 in 5.0 mi Calm Calm - N/A   Clear
5:55 AM 52.2 °F 52.0 °F 99% 30.21 in 5.0 mi Calm Calm - N/A   Clear
6:15 AM 51.4 °F 51.1 °F 99% 30.21 in 5.0 mi Calm Calm - N/A   Clear
6:35 AM 49.6 °F 49.5 °F 99% 30.22 in 5.0 mi Calm Calm - N/A   Scattered Clouds
6:55 AM 51.3 °F 51.1 °F 99% 30.22 in 1.0 mi Calm Calm - N/A   Overcast
7:15 AM 51.3 °F 51.3 °F 100% 30.23 in 0.8 mi Calm Calm - N/A   Overcast
7:35 AM 51.8 °F 51.8 °F 100% 30.24 in 0.2 mi Calm Calm - N/A Fog Fog
7:55 AM 51.3 °F 51.3 °F 100% 30.25 in 0.2 mi Calm Calm - N/A Fog Fog
8:15 AM 51.3 °F 51.3 °F 100% 30.25 in 0.2 mi Calm Calm - N/A Fog Fog
8:35 AM 52.2 °F 52.0 °F 99% 30.25 in 10.0 mi Calm Calm - N/A   Mostly Cloudy
8:55 AM 53.4 °F 53.1 °F 99% 30.25 in 10.0 mi Calm Calm - N/A   Clear
9:15 AM 54.7 °F 53.6 °F 96% 30.26 in 10.0 mi Calm Calm - N/A   Clear
9:35 AM 56.5 °F 53.8 °F 91% 30.26 in 10.0 mi Calm Calm - N/A   Clear
9:55 AM 58.3 °F 54.3 °F 87% 30.26 in 10.0 mi Calm Calm - N/A   Clear
10:15 AM 59.9 °F 55.2 °F 84% 30.26 in 10.0 mi Calm Calm - N/A   Clear
10:35 AM 63.5 °F 54.5 °F 72% 30.26 in 10.0 mi Calm Calm - N/A   Clear
10:55 AM 65.3 °F 52.9 °F 64% 30.25 in 10.0 mi Calm Calm - N/A   Clear
11:15 AM 67.3 °F 52.9 °F 60% 30.25 in 10.0 mi Calm Calm - N/A   Clear
11:35 AM 68.4 °F 53.4 °F 59% 30.25 in 10.0 mi Calm Calm - N/A   Scattered Clouds
11:55 AM 69.6 °F 54.0 °F 57% 30.25 in 10.0 mi ESE 3.5 mph - N/A   Overcast
12:15 PM 68.5 °F 53.4 °F 58% 30.24 in 10.0 mi Calm Calm - N/A   Overcast
12:35 PM 69.1 °F 55.0 °F 61% 30.24 in 10.0 mi NW 3.5 mph - N/A   Overcast
12:55 PM 69.4 °F 54.5 °F 59% 30.23 in 10.0 mi Calm Calm - N/A   Mostly Cloudy
1:15 PM 71.2 °F 55.4 °F 57% 30.23 in 10.0 mi SE 3.5 mph - N/A   Mostly Cloudy
1:35 PM 73.6 °F 55.9 °F 54% 30.21 in 10.0 mi SE 3.5 mph - N/A   Mostly Cloudy
1:55 PM 73.4 °F 55.2 °F 53% 30.20 in 10.0 mi NNE 3.5 mph - N/A   Overcast
2:15 PM 71.8 °F 54.0 °F 53% 30.19 in 10.0 mi Calm Calm - N/A   Overcast
2:35 PM 73.2 °F 54.3 °F 51% 30.18 in 10.0 mi Calm Calm - N/A   Mostly Cloudy
2:55 PM 74.1 °F 54.1 °F 50% 30.18 in 10.0 mi Calm Calm - N/A   Scattered Clouds
3:15 PM 73.0 °F 54.9 °F 53% 30.18 in 10.0 mi North 4.6 mph - N/A   Overcast
3:35 PM 72.7 °F 54.7 °F 53% 30.17 in 10.0 mi Calm Calm - N/A   Overcast
3:55 PM 73.9 °F 54.0 °F 50% 30.17 in 10.0 mi Calm Calm - N/A   Mostly Cloudy
4:15 PM 74.7 °F 54.5 °F 49% 30.16 in 10.0 mi Calm Calm - N/A   Scattered Clouds
4:35 PM 74.5 °F 54.3 °F 49% 30.16 in 10.0 mi Calm Calm - N/A   Scattered Clouds
4:55 PM 74.3 °F 56.7 °F 54% 30.15 in 10.0 mi NW 4.6 mph - N/A   Mostly Cloudy
5:15 PM 69.4 °F 59.5 °F 71% 30.15 in 10.0 mi NNW 4.6 mph - N/A   Scattered Clouds
5:35 PM 72.5 °F 56.8 °F 58% 30.14 in 10.0 mi West 3.5 mph - N/A   Clear
5:55 PM 73.6 °F 57.0 °F 56% 30.14 in 10.0 mi Calm Calm - N/A   Clear
6:15 PM 71.6 °F 58.8 °F 64% 30.14 in 10.0 mi Calm Calm - N/A   Clear
6:35 PM 69.1 °F 58.8 °F 70% 30.14 in 10.0 mi Calm Calm - N/A   Clear
6:55 PM 67.6 °F 59.7 °F 76% 30.14 in 10.0 mi Calm Calm - N/A   Clear
7:15 PM 64.9 °F 59.4 °F 82% 30.14 in 10.0 mi West 3.5 mph - N/A   Clear
7:35 PM 64.0 °F 59.5 °F 85% 30.15 in 10.0 mi NW 4.6 mph - N/A   Scattered Clouds
7:55 PM 62.4 °F 59.0 °F 89% 30.15 in 10.0 mi Calm Calm - N/A   Mostly Cloudy
8:15 PM 61.5 °F 59.0 °F 91% 30.15 in 10.0 mi Calm Calm - N/A   Mostly Cloudy
8:35 PM 60.8 °F 58.3 °F 91% 30.16 in 10.0 mi NNW 3.5 mph - N/A   Mostly Cloudy
8:55 PM 60.8 °F 58.3 °F 91% 30.17 in 10.0 mi Calm Calm - N/A   Overcast
9:15 PM 60.4 °F 58.3 °F 93% 30.17 in 10.0 mi Calm Calm - N/A   Overcast
9:35 PM 59.9 °F 57.9 °F 93% 30.17 in 10.0 mi Calm Calm - N/A   Overcast
9:55 PM 58.8 °F 57.2 °F 94% 30.18 in 10.0 mi Calm Calm - N/A   Mostly Cloudy
10:15 PM 58.6 °F 57.4 °F 96% 30.18 in 10.0 mi Calm Calm - N/A   Mostly Cloudy
10:35 PM 59.2 °F 57.7 °F 95% 30.18 in 10.0 mi Calm Calm - N/A   Overcast
10:55 PM 59.2 °F 57.7 °F 95% 30.18 in 10.0 mi Calm Calm - N/A   Overcast
11:15 PM 59.4 °F 57.4 °F 93% 30.18 in 10.0 mi Calm Calm - N/A   Overcast
11:35 PM 59.5 °F 57.6 °F 93% 30.19 in 10.0 mi Calm Calm - N/A   Overcast
11:55 PM 59.7 °F 58.3 °F 95% 30.19 in 10.0 mi Calm Calm - N/A   Overcast